This is the latest recevied weather packets stored in our database for station/object W5ITZ. If no packets are shown the sender has not sent any weather packets the latest 10 day(s).
| Time | Temp. | Humidity | Pressure | Rain* | Wind** | Luminosity | Snow |
|---|---|---|---|---|---|---|---|
| 1777408834 | 30° C | 70% | 1012 hPa | 0 mm | - | 717 W/m² | - |
| 1777408531 | 30° C | 71% | 1012.3 hPa | 0 mm | - | 669 W/m² | - |
| 1777408230 | 30° C | 71% | 1012.3 hPa | 0 mm | - | 858 W/m² | - |
| 1777407926 | 30° C | 72% | 1012.3 hPa | 0 mm | - | 865 W/m² | - |
| 1777407624 | 30° C | 70% | 1012.4 hPa | 0 mm | - | 543 W/m² | - |
| 1777407323 | 29.44° C | 75% | 1012.5 hPa | 0 mm | - | 952 W/m² | - |
| 1777407018 | 29.44° C | 74% | 1012.5 hPa | 0 mm | - | 448 W/m² | - |
| 1777406713 | 29.44° C | 75% | 1012.7 hPa | 0 mm | - | 756 W/m² | - |
| 1777406409 | 29.44° C | 75% | 1012.7 hPa | 0 mm | - | 394 W/m² | - |
| 1777406108 | 29.44° C | 75% | 1012.7 hPa | 0 mm | - | 849 W/m² | - |
| 1777405804 | 28.89° C | 76% | 1012.6 hPa | 0 mm | - | 703 W/m² | - |
| 1777405500 | 29.44° C | 75% | 1012.7 hPa | 0 mm | - | 659 W/m² | - |
| 1777405198 | 28.89° C | 76% | 1012.7 hPa | 0 mm | - | 994 W/m² | - |
| 1777404895 | 28.89° C | 75% | 1012.9 hPa | 0 mm | - | 395 W/m² | - |
| 1777404593 | 28.89° C | 76% | 1012.8 hPa | 0 mm | - | 695 W/m² | - |
| 1777404289 | 28.89° C | 76% | 1012.5 hPa | 0 mm | - | 399 W/m² | - |
| 1777403985 | 28.89° C | 74% | 1012.6 hPa | 0 mm | - | 523 W/m² | - |
| 1777403680 | 29.44° C | 72% | 1012.7 hPa | 0 mm | - | 722 W/m² | - |
| 1777403379 | 29.44° C | 73% | 1012.8 hPa | 0 mm | - | 510 W/m² | - |
| 1777403074 | 28.89° C | 75% | 1012.8 hPa | 0 mm | - | 352 W/m² | - |
| 1777402770 | 28.89° C | 75% | 1012.8 hPa | 0 mm | - | 416 W/m² | - |
| 1777402466 | 28.89° C | 74% | 1013.1 hPa | 0 mm | - | 421 W/m² | - |
| 1777402164 | 28.89° C | 75% | 1012.9 hPa | 0 mm | - | 401 W/m² | - |
| 1777401859 | 29.44° C | 74% | 1013 hPa | 0 mm | - | 1055 W/m² | - |
| 1777401558 | 29.44° C | 74% | 1012.9 hPa | 0 mm | - | 524 W/m² | - |
* Rain latest hour (hover to see other rain measurements)
** Current wind speed in m/s (hover to see current wind gust speed)